Weather History for KLSE - December, 2011

Change the Weather History Date:

Thursday, December 8, 2011

  Actual Average Record
Temperature  
Mean Temperature 22 °F 24 °F  
Max Temperature 27 °F 31 °F 60 °F (1946)
Min Temperature 17 °F 17 °F -16 °F (1876)
Degree Days  
Heating Degree Days 43 41  
Month to date heating degree days 313 316  
Since 1 July heating degree days 1614 1816  
Cooling Degree Days 0 0  
Month to date cooling degree days 0 0  
Year to date cooling degree days 922 782  
Moisture  
Dew Point 13 °F    
Average Humidity 69    
Maximum Humidity 91    
Minimum Humidity 46    
Precipitation  
Precipitation 0.00 in 0.05 in 0.65 in (2009)
Month to date precipitation 0.75 0.43  
Year to date precipitation 34.44 32.13  
Snow  
Snow 0.00 in 0.40 in 9.00 in (2009)
Month to date snowfall 1.6 3.0  
Since 1 July snowfall 2.3 7.3  
Snow Depth 1.00 in    
Sea Level Pressure  
Sea Level Pressure 30.21 in    
Wind  
Wind Speed 8 mph (WSW)    
Max Wind Speed 17 mph    
Max Gust Speed 21 mph    
Visibility 10 miles    
Events      
T = Trace of Precipitation, MM = Missing Value Source: NWS Daily Summary

Daily Weather History Graph

Daily Weather History Graph

Search for Another Location

Airport or City:

Trip Planner

Search our weather history database for the weather conditions in past years. The results will help you decide how hot, cold, wet, or windy it might be!

Date:

Astronomy

Dec. 08, 2011 Rise Set
Actual Time 7:26 AM CST 4:27 PM CST
Civil Twilight 6:53 AM CST 5:00 PM CST
Nautical Twilight 6:17 AM CST 5:36 PM CST
Astronomical Twilight 5:42 AM CST 6:11 PM CST
Moon 3:07 PM CST (12/8) 5:37 AM CST (12/8)
Length of Visible Light 10h 06m
Length of Day
9h 01m
Waxing Gibbous, 97% of the Moon is Illuminated
Dec 8
Waxing Gibbous
Dec 10
Full
Dec 17
Last Quarter
Dec 24
New
Jan 1
First Quarter

Hourly Weather History & Observations

Time (CST) Temp. Windchill Dew Point Humidity Pressure Visibility Wind Dir Wind Speed Gust Speed Precip Events Conditions
12:53 AM 21.9 °F 13.4 °F 18.0 °F 85% 30.14 in 9.0 mi South 6.9 mph - N/A   Overcast
1:53 AM 24.1 °F 17.0 °F 19.0 °F 81% 30.14 in 10.0 mi South 5.8 mph - N/A   Overcast
2:53 AM 25.0 °F 20.7 °F 19.0 °F 78% 30.15 in 10.0 mi SSW 3.5 mph - N/A   Overcast
3:53 AM 21.9 °F 15.7 °F 18.0 °F 85% 30.16 in 10.0 mi South 4.6 mph - N/A   Overcast
4:53 AM 19.9 °F 11.1 °F 16.0 °F 85% 30.17 in 10.0 mi SSW 6.9 mph - N/A   Clear
5:53 AM 19.9 °F - 17.1 °F 89% 30.19 in 10.0 mi Calm Calm - N/A   Clear
6:53 AM 19.0 °F 12.3 °F 14.0 °F 81% 30.20 in 10.0 mi SW 4.6 mph - N/A   Clear
7:53 AM 21.0 °F 12.4 °F 16.0 °F 81% 30.22 in 10.0 mi SSW 6.9 mph - N/A   Clear
8:53 AM 21.9 °F 13.4 °F 18.0 °F 85% 30.23 in 10.0 mi South 6.9 mph - N/A   Scattered Clouds
9:53 AM 25.0 °F 16.3 °F 17.1 °F 72% 30.25 in 10.0 mi WSW 8.1 mph - N/A   Partly Cloudy
10:53 AM 26.1 °F 17.6 °F 16.0 °F 66% 30.23 in 10.0 mi West 8.1 mph - N/A   Clear
11:53 AM 26.1 °F 14.5 °F 14.0 °F 60% 30.22 in 10.0 mi West 13.8 mph - N/A   Partly Cloudy
12:53 PM 27.0 °F 15.2 °F 14.0 °F 58% 30.22 in 10.0 mi West 15.0 mph - N/A   Scattered Clouds
1:53 PM 26.1 °F 15.6 °F 10.9 °F 53% 30.22 in 10.0 mi West 11.5 mph - N/A   Clear
2:53 PM 24.8 °F 14.0 °F 6.8 °F 46% 30.16 in 10.0 mi West 11.5 mph - N/A   Clear
3:53 PM 21.9 °F 11.7 °F 8.1 °F 55% 30.22 in 10.0 mi West 9.2 mph - N/A   Partly Cloudy
4:53 PM 21.0 °F 10.6 °F 8.1 °F 57% 30.22 in 10.0 mi West 9.2 mph - N/A   Mostly Cloudy
5:53 PM 19.4 °F 7.2 °F 8.6 °F 63% 30.19 in 10.0 mi WSW 11.5 mph - N/A   Clear
6:53 PM 19.9 °F 10.1 °F 9.0 °F 62% 30.25 in 10.0 mi WSW 8.1 mph - N/A   Mostly Cloudy
7:53 PM 19.0 °F 10.0 °F 9.0 °F 65% 30.25 in 10.0 mi WSW 6.9 mph - N/A   Overcast
8:53 PM 18.0 °F 8.7 °F 9.0 °F 68% 30.25 in 10.0 mi SW 6.9 mph - N/A   Clear
9:53 PM 19.0 °F 9.0 °F 10.0 °F 68% 30.25 in 10.0 mi WSW 8.1 mph - N/A   Scattered Clouds
10:53 PM 19.0 °F 9.0 °F 9.0 °F 65% 30.25 in 10.0 mi West 8.1 mph - N/A   Scattered Clouds
11:53 PM 19.0 °F 8.2 °F 8.1 °F 62% 30.25 in 10.0 mi West 9.2 mph - N/A   Clear